TimeEEST,TemperatureF,Dew PointF,Humidity,Sea Level PressureIn,VisibilityMPH,Wind Direction,Wind SpeedMPH,Gust SpeedMPH,PrecipitationIn,Events,Conditions,WindDirDegrees,DateUTC
12:20 AM,59.0,53.6,82,29.98,4.3,Calm,Calm,-,N/A,,Unknown,0,2013-05-04 21:20:00
12:50 AM,64.4,51.8,64,29.95,4.3,NNE,4.6,-,N/A,,Unknown,30,2013-05-04 21:50:00
1:20 AM,62.6,51.8,68,29.98,4.3,Variable,2.3,-,N/A,,Unknown,0,2013-05-04 22:20:00
1:50 AM,62.6,51.8,68,29.98,4.3,SSE,3.5,-,N/A,,Unknown,150,2013-05-04 22:50:00
2:20 AM,60.8,51.8,72,29.98,4.3,NW,2.3,-,N/A,,Unknown,310,2013-05-04 23:20:00
2:50 AM,59.0,50.0,72,29.98,-9999.0,NW,4.6,-,N/A,,Clear,320,2013-05-04 23:50:00
3:00 AM,59,50,65,29.98,6,NW,4.6,,,,,320,2013-05-05 00:00:00
3:20 AM,59.0,50.0,72,29.98,4.3,NNW,6.9,-,N/A,,Unknown,340,2013-05-05 00:20:00
3:50 AM,59.0,48.2,67,29.98,-9999.0,North,5.8,-,N/A,,Clear,350,2013-05-05 00:50:00
4:20 AM,59.0,48.2,67,29.98,-9999.0,North,4.6,-,N/A,,Clear,10,2013-05-05 01:20:00
4:50 AM,59.0,50.0,72,29.98,-9999.0,NNW,8.1,-,N/A,,Clear,340,2013-05-05 01:50:00
5:20 AM,59.0,51.8,77,29.98,-9999.0,North,5.8,-,N/A,,Clear,360,2013-05-05 02:20:00
5:50 AM,57.2,51.8,82,29.98,-9999.0,Variable,2.3,-,N/A,,Clear,0,2013-05-05 02:50:00
6:20 AM,57.2,51.8,82,29.98,-9999.0,Variable,1.2,-,N/A,,Clear,0,2013-05-05 03:20:00
6:50 AM,57.2,51.8,82,30.01,-9999.0,NNW,4.6,-,N/A,,Clear,340,2013-05-05 03:50:00
7:20 AM,59.0,53.6,82,30.01,-9999.0,North,6.9,-,N/A,,Clear,350,2013-05-05 04:20:00
7:50 AM,60.8,53.6,77,30.01,-9999.0,NNW,5.8,-,N/A,,Clear,340,2013-05-05 04:50:00
8:20 AM,62.6,53.6,72,30.04,-9999.0,Variable,5.8,-,N/A,,Clear,0,2013-05-05 05:20:00
8:50 AM,66.2,51.8,60,30.04,-9999.0,NNW,3.5,-,N/A,,Clear,330,2013-05-05 05:50:00
9:00 AM,66,50,45,30.04,6,NNW,3.5,,,,,330,2013-05-05 06:00:00
9:20 AM,68.0,53.6,60,30.04,-9999.0,Variable,4.6,-,N/A,,Clear,0,2013-05-05 06:20:00
9:50 AM,64.4,53.6,68,30.04,-9999.0,South,5.8,-,N/A,,Clear,170,2013-05-05 06:50:00
10:20 AM,66.2,55.4,68,30.06,-9999.0,SE,3.5,-,N/A,,Clear,130,2013-05-05 07:20:00
10:50 AM,73.4,44.6,36,30.06,-9999.0,Variable,8.1,-,N/A,,Clear,0,2013-05-05 07:50:00
11:20 AM,73.4,46.4,38,30.06,-9999.0,North,10.4,-,N/A,,Clear,10,2013-05-05 08:20:00
11:50 AM,73.4,48.2,41,30.06,-9999.0,North,12.7,-,N/A,,Clear,350,2013-05-05 08:50:00
12:20 PM,73.4,48.2,41,30.06,-9999.0,North,11.5,-,N/A,,Clear,10,2013-05-05 09:20:00
12:50 PM,75.2,50.0,41,30.06,-9999.0,North,11.5,-,N/A,,Clear,350,2013-05-05 09:50:00
1:20 PM,75.2,53.6,47,30.06,-9999.0,North,12.7,-,N/A,,Clear,360,2013-05-05 10:20:00
1:50 PM,77.0,55.4,47,30.06,-9999.0,North,12.7,-,N/A,,Clear,10,2013-05-05 10:50:00
2:20 PM,77.0,53.6,44,30.06,-9999.0,North,12.7,-,N/A,,Clear,10,2013-05-05 11:20:00
2:50 PM,77.0,53.6,44,30.06,-9999.0,NNE,11.5,-,N/A,,Clear,20,2013-05-05 11:50:00
3:00 PM,78,53,31,30.06,6,NNE,11.5,,,,,20,2013-05-05 12:00:00
3:20 PM,77.0,51.8,41,30.06,-9999.0,NE,10.4,-,N/A,,Clear,40,2013-05-05 12:20:00
3:50 PM,78.8,51.8,39,30.04,-9999.0,NNE,10.4,-,N/A,,Clear,30,2013-05-05 12:50:00
4:20 PM,78.8,51.8,39,30.04,-9999.0,North,12.7,-,N/A,,Clear,10,2013-05-05 13:20:00
4:50 PM,77.0,51.8,41,30.04,-9999.0,North,11.5,-,N/A,,Clear,10,2013-05-05 13:50:00
5:20 PM,75.2,51.8,44,30.04,-9999.0,NNE,11.5,-,N/A,,Clear,20,2013-05-05 14:20:00
5:50 PM,75.2,53.6,47,30.04,-9999.0,North,11.5,-,N/A,,Clear,10,2013-05-05 14:50:00
6:20 PM,73.4,53.6,50,30.04,-9999.0,NE,12.7,-,N/A,,Clear,40,2013-05-05 15:20:00
6:50 PM,73.4,53.6,50,30.04,-9999.0,NNE,11.5,-,N/A,,Clear,20,2013-05-05 15:50:00
7:20 PM,71.6,53.6,53,30.06,-9999.0,NNE,11.5,-,N/A,,Clear,30,2013-05-05 16:20:00
7:50 PM,69.8,53.6,56,30.06,-9999.0,NNE,11.5,-,N/A,,Clear,20,2013-05-05 16:50:00
8:20 PM,69.8,53.6,56,30.06,-9999.0,NNE,11.5,-,N/A,,Clear,20,2013-05-05 17:20:00
8:50 PM,69.8,53.6,56,30.06,-9999.0,Variable,8.1,-,N/A,,Clear,0,2013-05-05 17:50:00
9:00 PM,71,54,45,30.08,6,NNE,8.1,,,,,30,2013-05-05 18:00:00
9:20 PM,68.0,55.4,64,30.06,-9999.0,North,8.1,-,N/A,,Clear,360,2013-05-05 18:20:00
9:50 PM,66.2,55.4,68,30.06,-9999.0,North,8.1,-,N/A,,Clear,350,2013-05-05 18:50:00
10:20 PM,64.4,55.4,73,30.09,-9999.0,North,10.4,-,N/A,,Clear,350,2013-05-05 19:20:00
10:50 PM,64.4,57.2,77,30.09,-9999.0,North,15.0,-,N/A,,Clear,350,2013-05-05 19:50:00
11:20 PM,64.4,57.2,77,30.09,-9999.0,North,12.7,-,N/A,,Clear,360,2013-05-05 20:20:00
11:50 PM,64.4,59.0,83,30.09,-9999.0,North,10.4,-,N/A,,Clear,350,2013-05-05 20:50:00